Home   Weather   Ajmer   Past weeks

Flag for India Past Weather in Ajmer, Rajasthan, India — Yesterday and Last 2 Weeks

Now
81 °F

Haze.


Feels Like: 85 °F
Forecast: 78 / 92 °F
Wind: 1 mph from North

Location: Jaipur / Sanganer

Current Time: Oct 1, 2016 at 7:03:43 AM

Latest Report: Oct 1, 2016 at 6:30 AM


Visibility: 2 mi

Pressure: 29.80 "Hg

Humidity: 74%

Dew Point: 72 °F

Location of AjmerLocation

Past Weather in Ajmer — Graph

°F

Ajmer Temperature Yesterday

Maximum temperature yesterday: 93 °F (at 2:00 PM)
Minimum temperature yesterday: 79 °F (at 5:30 AM)
Average temperature yesterday: 86 °F

High & Low Weather Summary for the Past Weeks

 TemperatureHumidityPressure
High100 °F (Sep 21, 3:30 PM)94% (Sep 24, 1:30 AM)29.86 "Hg (Sep 24, 1:30 AM)
Low72 °F (Sep 24, 1:00 AM)27% (Sep 17, 4:30 PM)29.56 "Hg (Sep 22, 9:00 AM)
Average87 °F55%29.74 "Hg
* Reported Sep 16 5:30 AM — Oct 1 6:00 AM, Ajmer, Weather by CustomWeather, © 2016

Note: Actual official high and low records may vary slightly from our data, if they occured in-between our weather recording intervals... More about our weather records

Advertising

Ajmer Weather History for the Previous 24 Hours

Scroll right to see more
 ConditionsComfort  
Time TempWeatherWind HumidityBarometerVisibility
6:00 AM
Sat, Oct 1
81 °FHaze.No wind74%29.80 "Hg2 mi
5:30 AM81 °FHaze.3 mph74%29.80 "Hg2 mi
5:00 AM81 °FHaze.3 mph74%29.77 "Hg2 mi
3:00 AM82 °FHaze.No wind66%29.77 "Hg2 mi
1:00 AM82 °FHaze.3 mph66%29.77 "Hg2 mi
11:30 PM
Fri, Sep 30
84 °FHaze.6 mph66%29.77 "Hg2 mi
11:00 PM84 °FHaze.2 mph66%29.77 "Hg2 mi
10:30 PM84 °FHaze.No wind62%29.77 "Hg2 mi
10:00 PM84 °FHaze.3 mph62%29.77 "Hg3 mi
9:00 PM86 °FHaze.5 mph59%29.74 "Hg3 mi
8:30 PM86 °FHaze.5 mph59%29.74 "Hg3 mi
8:00 PM86 °FHaze.3 mph59%29.74 "Hg3 mi
7:00 PM88 °FHaze.2 mph55%29.71 "Hg3 mi
6:00 PM90 °FHaze.No wind49%29.71 "Hg3 mi
5:00 PM93 °FHaze.No wind44%29.68 "Hg3 mi
4:00 PM93 °FHaze.1 mph44%29.71 "Hg3 mi
3:00 PM93 °FHaze.1 mph47%29.71 "Hg3 mi
2:30 PM93 °FHaze.6 mph47%29.71 "Hg3 mi
2:00 PM93 °FHaze.3 mph47%29.71 "Hg3 mi
1:00 PM91 °FHaze.3 mph49%29.74 "Hg3 mi
12:30 PM91 °FHaze.5 mph49%29.77 "Hg3 mi
12:00 PM91 °FHaze.3 mph52%29.77 "Hg3 mi
11:30 AM90 °FHaze.1 mph55%29.80 "Hg3 mi
11:00 AM88 °FHaze.3 mph59%29.80 "Hg3 mi
10:30 AM88 °FHaze.3 mph55%29.80 "Hg3 mi
10:00 AM86 °FHaze.2 mph59%29.80 "Hg3 mi
9:30 AM86 °FHaze.3 mph59%29.80 "Hg3 mi
8:30 AM84 °FHaze.1 mph62%29.80 "Hg3 mi
8:00 AM82 °FHaze.2 mph70%29.80 "Hg3 mi
7:30 AM81 °FHaze.No wind74%29.80 "Hg3 mi
7:00 AM79 °FHaze.No wind79%29.77 "Hg3 mi
Weather by CustomWeather, © 2016

See weather overviewHow to use our weather pages